Flag for Turkmenistan Weather past 2 weeks in Ashgabat, Turkmenistan

59 °F

Partly cloudy.

Feels Like: 58 °F
Forecast: 56 / 72 °F
Wind: 8 mph from Northwest

Location: Ashgabat

Current Time: Oct 14, 2015 at 4:24:05 AM

Latest Report: Oct 14, 2015 at 3:30 AM

Visibility: N/A

Pressure: 30.18 "Hg

Humidity: 55%

Dew point: 43 °F

Location of AshgabatLocation

Historic Weather in Ashgabat — Graph


Ashgabat temperature yesterday

Maximum temperature yesterday: 77 °F (at 2:00 PM)
Minimum temperature yesterday: 54 °F (at 6:00 AM)
Average temperature yesterday: 65 °F

Past Weeks' High & Low Weather Summary

High102 °F (Oct 8, 2:00 PM)100% (Oct 9, 10:00 PM)30.24 "Hg (Oct 9, 10:00 PM)
Low52 °F (Oct 10, 7:30 AM)9% (Oct 8, 2:00 PM)29.59 "Hg (Oct 8, 4:00 AM)
Average71 °F48%30.02 "Hg
* Reported Sep 29 2:00 AM — Oct 14 2:30 AM, Ashgabat, Weather by CustomWeather, © 2015

Note: Actual official high and low records may vary slightly from our data, if they occured in-between our weather recording intervals... More about our weather records


Ashgabat weather history for previous 24 hours

Time TempWeatherWind HumidityBarometerVisibility
2:30 AM
Wed, Oct 14
59 °FMostly cloudy.8 mph55%30.15 "HgN/A
2:00 AM61 °FMostly cloudy.8 mph59%30.15 "HgN/A
1:30 AM63 °FMostly cloudy.10 mph56%30.15 "HgN/A
1:00 AM63 °FMostly cloudy.10 mph59%30.15 "HgN/A
12:30 AM63 °FPartly cloudy.10 mph68%30.15 "HgN/A
12:00 AM64 °FPartly cloudy.10 mph73%30.15 "HgN/A
11:30 PM
Tue, Oct 13
66 °FPassing clouds.8 mph68%30.12 "HgN/A
11:00 PM64 °FPassing clouds.6 mph73%30.12 "HgN/A
10:30 PM66 °FPassing clouds.8 mph68%30.12 "HgN/A
10:00 PM66 °FPassing clouds.3 mph68%30.12 "HgN/A
9:30 PM68 °FPassing clouds.3 mph69%30.09 "HgN/A
9:00 PM68 °FPassing clouds.3 mph69%30.09 "HgN/A
8:30 PM68 °FPassing clouds.3 mph69%30.09 "HgN/A
8:00 PM70 °FPassing clouds.3 mph60%30.09 "HgN/A
7:30 PM70 °FScattered clouds.3 mph60%30.07 "HgN/A
7:00 PM70 °FScattered clouds.6 mph60%30.07 "HgN/A
6:30 PM72 °FScattered clouds.6 mph57%30.07 "HgN/A
6:00 PM72 °FScattered clouds.8 mph57%30.04 "HgN/A
5:30 PM73 °FPassing clouds.10 mph53%30.04 "HgN/A
5:00 PM73 °FPassing clouds.13 mph53%30.04 "HgN/A
4:30 PM73 °FPassing clouds.10 mph53%30.04 "HgN/A
4:00 PM73 °FPassing clouds.13 mph50%30.04 "HgN/A
3:30 PM75 °FPassing clouds.13 mph47%30.01 "HgN/A
3:00 PM75 °FPassing clouds.13 mph50%30.01 "HgN/A
2:30 PM77 °FPassing clouds.10 mph44%30.01 "HgN/A
2:00 PM77 °FPassing clouds.13 mph44%30.01 "HgN/A
1:30 PM75 °FSunny.10 mph50%30.01 "HgN/A
1:00 PM75 °FSunny.10 mph54%30.01 "HgN/A
12:30 PM73 °FSunny.10 mph61%30.01 "Hg6 mi
12:00 PM73 °FSunny.10 mph61%30.01 "Hg6 mi
11:30 AM70 °FPassing clouds.6 mph69%30.01 "Hg4 mi
11:00 AM70 °FPassing clouds.6 mph69%30.01 "Hg4 mi
10:30 AM68 °FPassing clouds.6 mph73%29.98 "Hg4 mi
10:00 AM64 °FPassing clouds.1 mph78%29.98 "Hg4 mi
9:30 AM63 °FScattered clouds.1 mph83%29.98 "Hg4 mi
9:00 AM59 °FFog.1 mph94%29.98 "Hg3 mi
8:30 AM57 °FFog.1 mph94%29.98 "Hg2 mi
8:00 AM54 °FFog.3 mph100%29.95 "Hg2 mi
7:30 AM55 °FFog.No wind100%29.95 "Hg2 mi
7:00 AM55 °FFog.No wind94%29.95 "Hg2 mi
6:30 AM54 °FFog.3 mph100%29.92 "Hg2 mi
6:00 AM54 °FFog.3 mph100%29.92 "Hg2 mi
5:30 AM55 °FPassing clouds.No wind94%29.92 "Hg4 mi
5:00 AM55 °FFog.No wind94%29.92 "Hg3 mi
4:30 AM55 °FClear.1 mph94%29.92 "Hg5 mi
4:00 AM55 °FClear.3 mph94%29.92 "Hg4 mi
Weather by CustomWeather, © 2015

See weather overviewHow to use our weather pages